Flag for U.S.A. Weather past 2 weeks in Atlanta, Georgia, U.S.A.

Now
72 °F

Clear.


Feels Like: 70 °F
Forecast: 71 / 92 °F
Wind: No wind

Location: Fulton County Airport-Brown Field

Current Time: Aug 3, 2015 at 6:44:35 AM

Latest Report: Aug 3, 2015 at 5:53 AM


Visibility: 10 mi

Pressure: 29.86 "Hg

Humidity: 87%

Dew point: 68 °F

Location of AtlantaLocation

Historic Weather in Atlanta — Graph

°F

Atlanta temperature yesterday

Maximum temperature yesterday: 94 °F (at 4:53 PM)
Minimum temperature yesterday: 66 °F (at 6:53 AM)
Average temperature yesterday: 81 °F

Past Weeks' High & Low Weather Summary

 TemperatureHumidityPressure
High96 °F (Jul 28, 4:53 PM)97% (Jul 28, 5:53 AM)30.02 "Hg (Jul 28, 5:53 AM)
Low66 °F (Aug 2, 6:53 AM)33% (Aug 2, 5:53 PM)29.80 "Hg (Jul 21, 5:53 PM)
Average81 °F71%29.93 "Hg
* Reported Jul 19 4:53 AM — Aug 3 4:53 AM, Atlanta, Weather by CustomWeather, © 2015

Note: Actual official high and low records may vary slightly from our data, if they occured in-between our weather recording intervals... More about our weather records

Advertising

Atlanta weather history for previous 24 hours

 ConditionsComfort  
Time TempWeatherWind HumidityBarometerVisibility
4:53 AM
Mon, Aug 3
73 °FClear.3 mph84%29.85 "Hg10 mi
3:53 AM74 °FClear.No wind82%29.86 "Hg10 mi
2:53 AM75 °FPassing clouds.No wind82%29.86 "Hg10 mi
1:53 AM76 °FMostly cloudy.No wind80%29.87 "Hg10 mi
12:53 AM77 °FPassing clouds.No wind74%29.88 "Hg10 mi
11:53 PM
Sun, Aug 2
82 °FPassing clouds.6 mph60%29.88 "Hg10 mi
10:53 PM83 °FPassing clouds.6 mph55%29.87 "Hg10 mi
9:53 PM82 °FPassing clouds.5 mph56%29.86 "Hg10 mi
8:53 PM86 °FPartly sunny.5 mph45%29.85 "Hg10 mi
7:53 PM90 °FSunny.5 mph39%29.84 "Hg10 mi
6:53 PM93 °FSunny.3 mph33%29.84 "Hg10 mi
5:53 PM93 °FSunny.5 mph33%29.85 "Hg10 mi
4:53 PM94 °FSunny.6 mph35%29.86 "Hg10 mi
3:53 PM92 °FScattered clouds.7 mph35%29.88 "Hg10 mi
2:53 PM91 °FPassing clouds.7 mph37%29.89 "Hg10 mi
1:53 PM91 °FSunny.8 mph38%29.90 "Hg10 mi
12:53 PM89 °FSunny.10 mph41%29.92 "Hg10 mi
11:53 AM87 °FSunny.8 mph42%29.94 "Hg10 mi
10:53 AM84 °FSunny.12 mph45%29.95 "Hg10 mi
9:53 AM80 °FSunny.6 mph56%29.94 "Hg10 mi
8:53 AM74 °FSunny.No wind69%29.93 "Hg10 mi
7:53 AM67 °FSunny.No wind87%29.92 "Hg10 mi
6:53 AM66 °FClear.No wind87%29.92 "Hg10 mi
Weather by CustomWeather, © 2015

See weather overviewHow to use our weather pages